Regional Weather Roundup
Issued by NWS

Home | Current Version | Previous Version | Text Only | Print | Product List | Glossary On
Versions: 1 2 3 4 5 6 7 8 9 10 11 12 13 14 15 16 17 18 19 20 21 22 23 24 25 26 27 28 29 30 31 32 33 34 35 36 37 38 39 40 41 42 43 44 45 46 47 48 49 50
000
ASUS43 KMKX 262021
RWRWI

WISCONSIN REGIONAL WEATHER ROUNDUP
NATIONAL WEATHER SERVICE MILWAUKEE/SULLIVAN WI
300 PM CDT FRI AUG 26 2016

NOTE: "FAIR" INDICATES FEW OR NO CLOUDS BELOW 12,000 FEET WITH NO
SIGNIFICANT WEATHER AND/OR OBSTRUCTIONS TO VISIBILITY.

WIZ001-002-006>008-014>016-023>028-262100-
NORTHWEST WISCONSIN

CITY           SKY/WX    TMP DP  RH WIND       PRES   REMARKS
SUPERIOR ARPT  CLOUDY    74  52  47 SW6       30.11F
ASHLAND        CLOUDY    71  51  49 E7        30.14F
HAYWARD        CLOUDY    68  50  52 VRB3      30.16S
SIREN          CLOUDY    71  50  46 SE5       30.15F
CUMBERLAND     CLOUDY    68  50  52 S5        30.16F
RICE LAKE      CLOUDY    69  52  53 W5        30.17F
CHETEK         NOT AVBL
LADYSMITH      CLOUDY    70  51  51 W3        30.18F
EAU CLAIRE     PTSUNNY   73  52  47 VRB5      30.15F
MENOMONIE      CLOUDY    71  51  48 NW3       30.16S
NEW RICHMOND   CLOUDY    70  53  55 SW3       30.16F
OSCEOLA        CLOUDY    70  51  50 CALM      30.19S
$$

WIZ003>005-009-010-017-018-262100-
NORTH CENTRAL WISCONSIN

CITY           SKY/WX    TMP DP  RH WIND       PRES   REMARKS
MANITOWISH WTR NOT AVBL
ARBOR VITAE    CLOUDY    69  50  51 NW5       30.17R
WOODRUFF       CLOUDY    69  50  51 NW5       30.17R
RHINELANDER    CLOUDY    68  50  52 NW3       30.17F
EAGLE RIVER    CLOUDY    66  46  49 W8        30.16S
LAND O LAKES   PTSUNNY   67  47  48 NW6       30.17S
PHILLIPS       CLOUDY    67  52  58 W3        30.16S
TOMAHAWK       PTSUNNY   69  48  47 W8        30.17S
MEDFORD        PTSUNNY   68  52  56 NW8       30.16F
MERRILL        CLOUDY    70  53  53 N5        30.15F
$$

WIZ029-030-035-036-043>047-262100-
CENTRAL WISCONSIN

CITY           SKY/WX    TMP DP  RH WIND       PRES   REMARKS
WAUSAU         PTSUNNY   70  50  49 W7        30.14F
MOSINEE        MOSUNNY   70  52  52 N3        30.16F
MARSHFIELD     MOSUNNY   71  52  50 CALM      30.15F
STEVENS POINT  PTSUNNY   68  52  55 CALM      30.16S
WAUPACA        CLOUDY    74  54  48 NW5       30.16S
WAUTOMA        CLOUDY    73  56  54 NW7       30.15F
WISC RAPIDS    PTSUNNY   71  53  52 CALM      30.17F
CAMP DOUGLAS   PTSUNNY   73  57  56 VRB2      30.15F
$$

WIZ011>013-019>022-031-037>040-048>050-262100-
NORTHEAST WISCONSIN

CITY           SKY/WX    TMP DP  RH WIND       PRES   REMARKS
ANTIGO         MOSUNNY   71  51  49 W3        30.15F
SHAWANO        CLOUDY    75  53  45 N8        30.14S
OCONTO         NOT AVBL
STURGEON BAY   CLOUDY    72  55  55 W7        30.14F
GREEN BAY      PTSUNNY   71  58  63 W5        30.14F
MANITOWOC      PTSUNNY   74  55  51 NW8       30.14F
APPLETON       PTSUNNY   72  52  49 W8        30.14F
CLINTONVILLE   PTSUNNY   72  50  46 W7        30.14S
OSHKOSH        PTSUNNY   71  56  58 VRB5      30.15F
$$

WIZ032>034-041-042-053>061-262100-
SOUTHWEST WISCONSIN

CITY           SKY/WX    TMP DP  RH WIND       PRES   REMARKS
LA CROSSE      MOSUNNY   73  57  57 W3        30.15F
SPARTA         MOSUNNY   72  56  58 S3        30.16F
VIROQUA        MOSUNNY   70  57  63 CALM      30.17S
BOSCOBEL       LGT RAIN  71  59  65 VRB3      30.15F
PRAIRIE DU CHI CLOUDY    69  58  68 E5        30.14F
PLATTEVILLE    CLOUDY    71  61  70 CALM      30.15F
$$

WIZ056-057-062-063-064-067-068-262100-
SOUTH CENTRAL WISCONSIN

CITY           SKY/WX    TMP DP  RH WIND       PRES   REMARKS
REEDSBURG      NOT AVBL
BARABOO/DELLS  CLOUDY    70  55  57 CALM      30.17S
LONE ROCK      CLOUDY    72  58  61 VRB3      30.16F
MINERAL POINT  PTSUNNY   72  57  60 CALM      30.16F
MADISON        CLOUDY    72  57  59 CALM      30.15F
MIDDLETON      CLOUDY    74  58  58 NW3       30.16F
WATERTOWN      PTSUNNY   73  59  61 S3        30.15F
MONROE         CLOUDY    72  57  60 N3        30.14F
JANESVILLE     PTSUNNY   77  57  50 CALM      30.14F
$$

WIZ051-052-058>065-066-070>072-262100-
SOUTHEAST WISCONSIN

CITY           SKY/WX    TMP DP  RH WIND       PRES   REMARKS
MILWAUKEE      CLOUDY    75  57  53 SE6       30.15F
WAUKESHA       SUNNY     72  55  56 CALM      30.17F
MILWAUKEE/TIMM SUNNY     75  54  46 S3        30.16F
RACINE         MOSUNNY   75  59  57 SE9       30.16F
BURLINGTON     MOSUNNY   77  55  46 CALM      30.14F
KENOSHA        MOSUNNY   76  62  62 E8        30.15F
FOND DU LAC    CLOUDY    71  55  56 CALM      30.16S
SHEBOYGAN      CLOUDY    74  54  49 VRB3      30.15F
WEST BEND      MOSUNNY   72  55  56 SW6       30.16S
JUNEAU         CLOUDY    70  56  61 CALM      30.17F
$$

LSZ147-162-262100-
LAKE SUPERIOR

STATION/POSITION TIME  TEMP    WIND        PRES    WAVE
                       AIR SEA DIR/SP/G            HT/PER
                 (UTC) (F)     (DEG/KT/KT) (MB)    (FT/S)
W MID LAKE BUOY  1950   64 69  210/  2/  2 1020.3F   1/ 3
DEVILS ISLAND    2000   65     120/  7/  9 1020.5F
PORT WING        1900   70      10/  3/  4 1020.7F
SAXON HARBOR     1900   68      30/  4/  5 1021.0
$$

LMZ867-665-643>646-262100-
LAKE MICHIGAN

STATION/POSITION TIME  TEMP    WIND        PRES    WAVE
                       AIR SEA DIR/SP/G            HT/PER
                 (UTC) (F)     (DEG/KT/KT) (MB)    (FT/S)
CHAMBERS ISLAND  1900   71     180/  4/ 10 1020.0S
S GREEN BAY BUOY 1800   70 72  250/  8/ 10 1020.0F
N MID LAKE BUOY  1950   67 71  220/  8/ 10 1019.4F   1
NORTHPORT PIER   1900   73     270/  4/  7 1020.0S
SISTER BAY       1807   76     270/  7/  8   N/A
KEWAUNEE LAKESHO 1900   72     310/  5/  9 1020.3S
SHEBOYGAN LAKESH 2000   65     170/ 12/ 12 1020.4F
PORT WASHINGTON  1940   70     180/  5/  5 1021.7F
ATWATER BUOY     2000   67 62  130/  4/  4   N/A
MILWAUKEE LAKESH 1910   68     120/  5/  5   N/A
S MID LAKE BUOY  1950   71 76   20/  4/  6 1020.6F   1
KENOSHA   LAKESH 2000   70      80/  2/  3 1020.3F
$$

TC  - TEMPERATURE IN CELSIUS
VSB - VISIBILITY IN STATUTE MILES
WCI - WIND CHILL INDEX
HX  - HEAT INDEX





USA.gov is the U.S. government's official web portal to all federal, state and local government web resources and services.